Fort Myers - Cape Coral Weather Center

Moon Phase Calendar



Online Cameras

 


      

Current Conditions in Burnt Store Marina
1/24/2022 5:33:59 AM

40°F
Feels Like 35
Clouds
Humidity
94%
Pressure
30.03"
Wind
7.9 mph (N)
Dew Point
39°F
UV Index
0/10 (Low)
Visibility
6 mi

Hourly Forecast

Date & Time Mon, Jan 24
5:00 AM
Mon, Jan 24
6:00 AM
Mon, Jan 24
7:00 AM
Mon, Jan 24
8:00 AM
Mon, Jan 24
9:00 AM
Mon, Jan 24
10:00 AM
Mon, Jan 24
11:00 AM
Mon, Jan 24
12:00 PM
Mon, Jan 24
1:00 PM
Mon, Jan 24
2:00 PM
Mon, Jan 24
3:00 PM
Mon, Jan 24
4:00 PM
Mon, Jan 24
5:00 PM
Mon, Jan 24
6:00 PM
Mon, Jan 24
7:00 PM
Mon, Jan 24
8:00 PM
Mon, Jan 24
9:00 PM
Mon, Jan 24
10:00 PM
Mon, Jan 24
11:00 PM
Tue, Jan 25
12:00 AM
Tue, Jan 25
1:00 AM
Tue, Jan 25
2:00 AM
Tue, Jan 25
3:00 AM
Tue, Jan 25
4:00 AM
Tue, Jan 25
5:00 AM
Tue, Jan 25
6:00 AM
Tue, Jan 25
7:00 AM
Tue, Jan 25
8:00 AM
Tue, Jan 25
9:00 AM
Tue, Jan 25
10:00 AM
Tue, Jan 25
11:00 AM
Tue, Jan 25
12:00 PM
Tue, Jan 25
1:00 PM
Tue, Jan 25
2:00 PM
Tue, Jan 25
3:00 PM
Tue, Jan 25
4:00 PM
Tue, Jan 25
5:00 PM
Tue, Jan 25
6:00 PM
Tue, Jan 25
7:00 PM
Tue, Jan 25
8:00 PM
Tue, Jan 25
9:00 PM
Tue, Jan 25
10:00 PM
Tue, Jan 25
11:00 PM
Wed, Jan 26
12:00 AM
Wed, Jan 26
1:00 AM
Wed, Jan 26
2:00 AM
Wed, Jan 26
3:00 AM
Wed, Jan 26
4:00 AM
Condition
Clouds

Clouds

Clouds

Clouds

Clouds

Clouds

Clouds

Clouds

Clouds

Clear

Clear

Clear

Clear

Clear

Clouds

Clouds

Clouds

Clouds

Clouds

Clouds

Clouds

Clouds

Clouds

Clouds

Clouds

Clouds

Clouds

Clouds

Clouds

Clouds

Clouds

Clouds

Clouds

Clouds

Clouds

Clouds

Rain

Rain

Rain

Rain

Rain

Rain

Clouds

Clouds

Clouds

Clouds

Clouds

Clouds
Temperature 41°F40°F41°F42°F45°F50°F56°F58°F61°F62°F63°F62°F61°F57°F56°F56°F56°F55°F55°F54°F54°F54°F54°F53°F53°F53°F54°F54°F56°F59°F60°F64°F66°F67°F67°F64°F61°F56°F54°F55°F54°F55°F56°F57°F58°F58°F58°F59°F
Feels Like 36°F35°F36°F38°F41°F48°F54°F56°F58°F60°F61°F60°F59°F55°F54°F54°F54°F53°F53°F53°F52°F52°F51°F51°F51°F51°F51°F52°F53°F56°F58°F62°F64°F65°F65°F62°F59°F55°F53°F54°F54°F55°F55°F57°F57°F58°F58°F59°F
Cloudiness 31%32%32%20%13%20%23%29%32%9%8%7%8%8%18%29%61%74%80%77%78%88%89%93%94%96%96%100%100%100%100%100%100%100%100%100%100%100%100%100%100%100%100%100%100%93%94%96%
Visibility 6 mi6 mi6 mi6 mi6 mi6 mi6 mi6 mi6 mi6 mi6 mi6 mi6 mi6 mi6 mi6 mi6 mi6 mi6 mi6 mi6 mi6 mi6 mi6 mi6 mi6 mi6 mi6 mi6 mi6 mi6 mi6 mi6 mi6 mi6 mi6 mi6 mi4 mi6 mi6 mi6 mi6 mi6 mi6 mi6 mi6 mi6 mi6 mi
Precipitation 0%0%0%0%0%0%0%0%0%0%0%0%0%0%0%0%0%0%0%0%0%0%0%0%0%0%0%0%0%0%0%0%0%1%3%35%45%65%73%89%89%100%80%80%80%5%1%1%
Humidity 91%94%91%88%80%69%55%48%42%39%40%44%52%63%65%64%63%63%62%62%62%61%59%58%56%54%51%50%49%45%45%39%34%34%35%43%54%76%86%85%88%87%87%87%88%89%90%91%
Dew Point 39°F39°F39°F39°F40°F40°F40°F38°F37°F36°F37°F40°F42°F44°F44°F44°F43°F43°F42°F42°F41°F41°F40°F39°F38°F37°F36°F36°F37°F37°F39°F38°F37°F38°F38°F41°F44°F49°F50°F50°F51°F51°F52°F53°F54°F55°F55°F56°F
Pressure 30.03"30.03"30.03"30.03"30.06"30.09"30.09"30.06"30.03"30"29.97"29.97"29.97"30"30"30.03"30.03"30.03"30.03"30"30"30"29.97"29.97"29.97"30"30.03"30.03"30.06"30.06"30.03"30"29.97"29.97"29.97"29.97"29.94"30"30"30"30"30.03"30"30"30"30"29.97"29.97"
Wind Speed 7.4 mph7.9 mph7.5 mph7.2 mph7.8 mph7.8 mph6.9 mph6 mph5.5 mph4 mph4.8 mph7 mph8.2 mph7.2 mph6.3 mph5.9 mph4.7 mph3.6 mph2.8 mph2.6 mph3 mph3.9 mph3.9 mph3.9 mph4.4 mph4.6 mph5.5 mph6.2 mph6.9 mph9 mph10.1 mph10.3 mph9.8 mph10.1 mph5.8 mph4.4 mph10.7 mph12.1 mph15.5 mph14.6 mph17.4 mph14.4 mph13.7 mph11.9 mph11.4 mph10.3 mph9.4 mph9.1 mph
Wind
Direction
10°
N

N
17°
NNE
14°
NNE
20°
NNE
13°
NNE

N

N

N
313°
NW
283°
WNW
273°
W
272°
W
268°
W
278°
W
307°
NW
331°
NNW
340°
NNW
354°
N
30°
NNE
50°
NE
40°
NE
47°
NE
34°
NE
59°
ENE
57°
ENE
31°
NNE
54°
NE
36°
NE
72°
ENE
92°
E
101°
E
110°
ESE
124°
SE
109°
ESE
34°
NE
29°
NNE
33°
NNE
69°
ENE
66°
ENE
73°
ENE
87°
E
102°
ESE
106°
ESE
100°
E
87°
E
78°
ENE
72°
ENE

Daily Forecast

Date High Low Precip. Humidity
Today
Jan 24

Clouds
63 °F
40 °F
0%
48%
Tuesday
Jan 25

Rain
67 °F
53 °F
100%
39%
Wednesday
Jan 26

Rain
66 °F
58 °F
100%
84%
Thursday
Jan 27

Clouds
75 °F
61 °F
0%
61%
Friday
Jan 28

Clouds
72 °F
61 °F
26%
60%
Saturday
Jan 29

Rain
58 °F
48 °F
100%
44%
Sunday
Jan 30

Clear
59 °F
39 °F
0%
28%
Monday
Jan 31

Clouds
66 °F
48 °F
0%
50%
Tuesday
Feb 1

Clouds
70 °F
51 °F
0%
52%
Wednesday
Feb 2

Clouds
72 °F
56 °F
0%
48%
Thursday
Feb 3

Clouds
75 °F
58 °F
0%
49%
Friday
Feb 4

Clouds
75 °F
60 °F
0%
54%
Saturday
Feb 5

Clouds
79 °F
63 °F
0%
53%
Sunday
Feb 6

Clear
82 °F
65 °F
0%
54%
Monday
Feb 7

Rain
82 °F
67 °F
26%
53%
Tuesday
Feb 8

Rain
80 °F
66 °F
48%
56%

Temperature 8-14 Day Outlook



Precipitation 8-14 Day Outlook




Quick Links
Fort Myers - Cape Coral News
Fort Myers - Cape Coral Photos
Fort Myers - Cape Coral Videos




About Us
Contact Us
Site Map
Search Site
Advertise With Us
   
FortMyers.USGulf.info
THE FORT MYERS - CAPE CORAL WEBSITE

Copyright 2022, Coastal Town
Privacy    |    Legal